Location: *
(49.9853°N, 3.5569°E)
Time: 05:11:57
(UTC+00:00)

USA 245 - Pass Details

Date: 22 September 2019
Orbit: 266 x 999 km, 97.9° (Epoch: 04 October)

Event Time Altitude Azimuth Distance (km) Brightness Sun altitude
Exits shadow 20:14:05 50° 92° (E) 1,154 4.5 -23.7°
Maximum altitude 20:14:44 52° 70° (ENE) 1,111 4.5 -23.8°
Drops below altitude 10° 20:19:59 10° 355° (N) 2,393 7.0 -24.5°
Sets 20:22:12 0° 351° (N) 3,224 7.8 -24.8°
